Sioux City, IA

8:50 PM CDT on May 27, 2017 (GMT -0500)
Sioux Gateway

Weather History for KSUX - November, 2012

Change the Weather History Date:

Saturday, November 17, 2012

  Actual Average Record
Temperature  
Mean Temperature 47 °F 35 °F  
Max Temperature 62 °F 45 °F 72 °F (1941)
Min Temperature 31 °F 25 °F -4 °F (1959)
Degree Days  
Heating Degree Days 18 30  
Month to date heating degree days 414 433  
Since 1 July heating degree days 1095 1033  
Cooling Degree Days 0 0  
Month to date cooling degree days 0 0  
Year to date cooling degree days 1249 869  
Moisture  
Dew Point 34 °F    
Average Humidity 64    
Maximum Humidity 89    
Minimum Humidity 39    
Precipitation  
Precipitation 0.00 in 0.05 in 1.05 in (1971)
Month to date precipitation 1.07 0.76  
Year to date precipitation 22.45 26.39  
Snow  
Snow 0.00 in 0.10 in 2.80 in (1986)
Month to date snowfall 0.0 1.8  
Since 1 July snowfall 0.1 2.8  
Since 1 September snowfall 0.1 2.8  
Snow Depth 0.00 in    
Sea Level Pressure  
Sea Level Pressure 30.20 in    
Wind  
Wind Speed 12 mph (SE)    
Max Wind Speed 26 mph    
Max Gust Speed 32 mph    
Visibility 10 miles    
Events      
T = Trace of Precipitation, MM = Missing Value Source: NWS Daily Summary

Daily Weather History Graph

Daily Weather History Graph

Search for Another Location

Airport or City:

Trip Planner

Search our weather history database for the weather conditions in past years. The results will help you decide how hot, cold, wet, or windy it might be!

Date:

Astronomy

Nov. 17, 2012 Rise Set
Actual Time 7:19 AM CST 5:01 PM CST
Civil Twilight 6:49 AM CST 5:31 PM CST
Nautical Twilight 6:14 AM CST 6:05 PM CST
Astronomical Twilight 5:41 AM CST 6:39 PM CST
Moon 11:05 AM CST (11/17) 9:12 PM CST (11/17)
Length of Visible Light 10h 42m
Length of Day
9h 41m
Waxing Crescent, 20% of the Moon is Illuminated
Nov 17
Waxing Crescent
Nov 20
First Quarter
Nov 28
Full
Dec 6
Last Quarter
Dec 13
New

Hourly Weather History & Observations

Time (CST) Temp. Windchill Dew Point Humidity Pressure Visibility Wind Dir Wind Speed Gust Speed Precip Events Conditions
12:52 AM 34.0 °F 28.0 °F 30.0 °F 85% 30.30 in 10.0 mi SE 6.9 mph - N/A   Clear
1:52 AM 34.0 °F 27.2 °F 30.9 °F 89% 30.28 in 10.0 mi ESE 8.1 mph - N/A   Clear
2:52 AM 34.0 °F 28.0 °F 30.0 °F 85% 30.27 in 10.0 mi East 6.9 mph - N/A   Clear
3:52 AM 34.0 °F 27.2 °F 30.9 °F 89% 30.26 in 10.0 mi East 8.1 mph - N/A   Clear
4:52 AM 34.0 °F 26.0 °F 30.9 °F 89% 30.26 in 9.0 mi ESE 10.4 mph - N/A   Clear
5:52 AM 35.1 °F 27.4 °F 32.0 °F 89% 30.26 in 9.0 mi SE 10.4 mph - N/A   Clear
6:52 AM 36.0 °F 28.0 °F 32.0 °F 86% 30.26 in 10.0 mi SE 11.5 mph - N/A   Clear
7:52 AM 37.0 °F 30.4 °F 33.1 °F 86% 30.26 in 10.0 mi ESE 9.2 mph - N/A   Clear
8:52 AM 41.0 °F 36.4 °F 34.0 °F 76% 30.26 in 10.0 mi SSE 6.9 mph - N/A   Mostly Cloudy
9:52 AM 48.0 °F - 36.0 °F 63% 30.25 in 10.0 mi South 13.8 mph - N/A   Overcast
10:52 AM 52.0 °F - 35.1 °F 53% 30.24 in 10.0 mi South 16.1 mph 25.3 mph N/A   Scattered Clouds
11:52 AM 57.0 °F - 35.1 °F 44% 30.20 in 10.0 mi South 16.1 mph - N/A   Clear
12:52 PM 59.0 °F - 35.1 °F 41% 30.16 in 10.0 mi South 18.4 mph 27.6 mph N/A   Scattered Clouds
1:52 PM 61.0 °F - 36.0 °F 39% 30.15 in 10.0 mi South 23.0 mph 29.9 mph N/A   Clear
2:52 PM 62.1 °F - 37.0 °F 39% 30.13 in 10.0 mi South 15.0 mph 27.6 mph N/A   Clear
3:52 PM 60.1 °F - 37.0 °F 42% 30.12 in 10.0 mi SSE 19.6 mph 24.2 mph N/A   Clear
4:52 PM 57.9 °F - 36.0 °F 44% 30.13 in 10.0 mi SSE 13.8 mph - N/A   Clear
5:52 PM 55.0 °F - 36.0 °F 49% 30.14 in 10.0 mi SSE 9.2 mph - N/A   Clear
6:52 PM 51.1 °F - 35.1 °F 54% 30.14 in 10.0 mi SSE 10.4 mph - N/A   Clear
7:52 PM 50.0 °F - 35.1 °F 57% 30.15 in 10.0 mi SSE 13.8 mph - N/A   Clear
8:52 PM 48.9 °F - 34.0 °F 56% 30.15 in 10.0 mi SSE 10.4 mph - N/A   Clear
9:52 PM 46.0 °F 41.4 °F 34.0 °F 63% 30.14 in 10.0 mi SE 9.2 mph - N/A   Clear
10:52 PM 45.0 °F 39.7 °F 34.0 °F 65% 30.13 in 10.0 mi SE 10.4 mph - N/A   Clear
11:52 PM 44.1 °F 39.5 °F 33.1 °F 65% 30.13 in 10.0 mi SE 8.1 mph - N/A   Clear